Back to catalog

COSMOS 2251 DEB

AliveLEO
NORAD 33945·DEBRIS·🇷🇺 Russia

Launched Jun 16, 1993 from Plesetsk Cosmodrome

Loading…

Next Passes (next 24 hours)

TLE

FreshSource: Space-Track

Epoch: Sep 13, 2026, 20:39 UTC

1 33945U 93036FA  26256.86077871  .00000170  00000-0  69061-4 0  9994
2 33945  74.0304 162.0719 0023001 187.8337 172.2460 14.34771787919610

Track COSMOS 2251 DEB in real time with AllMySat

Download on the App Store